TimeMDT,TemperatureF,Dew PointF,Humidity,Sea Level PressureIn,VisibilityMPH,Wind Direction,Wind SpeedMPH,Gust SpeedMPH,PrecipitationIn,Events,Conditions,WindDirDegrees,DateUTC
12:15 AM,48.2,44.6,87,30.16,10.0,WSW,5.8,-,N/A,,Overcast,240,2012-10-14 06:15:00
12:35 AM,48.2,44.6,87,30.17,10.0,Calm,Calm,-,N/A,,Overcast,0,2012-10-14 06:35:00
12:55 AM,48.2,44.6,87,30.18,10.0,Calm,Calm,-,N/A,,Overcast,0,2012-10-14 06:55:00
1:15 AM,48.2,44.6,87,30.19,10.0,NNE,5.8,-,N/A,,Overcast,30,2012-10-14 07:15:00
1:35 AM,48.2,42.8,82,30.19,10.0,Calm,Calm,-,N/A,,Overcast,0,2012-10-14 07:35:00
1:55 AM,50.0,42.8,76,30.20,10.0,Calm,Calm,-,N/A,,Mostly Cloudy,0,2012-10-14 07:55:00
2:15 AM,50.0,41.0,71,30.20,10.0,NNW,5.8,-,N/A,,Mostly Cloudy,340,2012-10-14 08:15:00
2:35 AM,48.2,41.0,76,30.20,10.0,North,4.6,-,N/A,,Overcast,350,2012-10-14 08:35:00
2:55 AM,48.2,42.8,82,30.21,10.0,North,5.8,-,N/A,,Overcast,360,2012-10-14 08:55:00
3:15 AM,48.2,41.0,76,30.20,10.0,North,5.8,-,N/A,,Overcast,10,2012-10-14 09:15:00
3:35 AM,48.2,41.0,76,30.20,10.0,NNE,4.6,-,N/A,,Overcast,20,2012-10-14 09:35:00
3:55 AM,48.2,41.0,76,30.21,10.0,North,8.1,-,N/A,,Overcast,10,2012-10-14 09:55:00
4:15 AM,48.2,39.2,71,30.22,10.0,North,8.1,-,N/A,,Overcast,10,2012-10-14 10:15:00
4:35 AM,46.4,41.0,81,30.21,10.0,North,8.1,-,N/A,,Overcast,360,2012-10-14 10:35:00
4:55 AM,46.4,41.0,81,30.22,10.0,West,5.8,-,N/A,,Mostly Cloudy,280,2012-10-14 10:55:00
5:15 AM,46.4,39.2,76,30.23,10.0,West,3.5,-,N/A,,Scattered Clouds,270,2012-10-14 11:15:00
5:35 AM,46.4,37.4,71,30.25,10.0,Calm,Calm,-,N/A,,Overcast,0,2012-10-14 11:35:00
5:55 AM,46.4,39.2,76,30.26,10.0,WNW,3.5,-,N/A,,Overcast,290,2012-10-14 11:55:00
6:15 AM,46.4,41.0,81,30.26,10.0,WSW,3.5,-,N/A,,Overcast,240,2012-10-14 12:15:00
6:35 AM,46.4,41.0,81,30.26,10.0,Calm,Calm,-,N/A,,Overcast,0,2012-10-14 12:35:00
6:55 AM,46.4,39.2,76,30.25,10.0,SSE,3.5,-,N/A,,Overcast,150,2012-10-14 12:55:00
7:15 AM,46.4,41.0,81,30.25,10.0,NW,5.8,-,N/A,,Mostly Cloudy,310,2012-10-14 13:15:00
7:35 AM,46.4,39.2,76,30.26,10.0,SSW,6.9,-,N/A,,Scattered Clouds,200,2012-10-14 13:35:00
7:55 AM,44.6,39.2,81,30.27,10.0,South,3.5,-,N/A,,Clear,190,2012-10-14 13:55:00
8:15 AM,46.4,41.0,81,30.28,10.0,Calm,Calm,-,N/A,,Mostly Cloudy,0,2012-10-14 14:15:00
8:35 AM,46.4,42.8,87,30.29,10.0,Calm,Calm,-,N/A,,Mostly Cloudy,0,2012-10-14 14:35:00
8:55 AM,48.2,42.8,82,30.29,10.0,South,4.6,-,N/A,,Clear,170,2012-10-14 14:55:00
9:15 AM,51.8,42.8,71,30.29,10.0,South,5.8,-,N/A,,Clear,180,2012-10-14 15:15:00
9:35 AM,53.6,42.8,67,30.29,10.0,South,5.8,-,N/A,,Clear,180,2012-10-14 15:35:00
9:55 AM,55.4,41.0,58,30.29,10.0,South,12.7,-,N/A,,Clear,190,2012-10-14 15:55:00
10:15 AM,55.4,41.0,58,30.29,10.0,South,10.4,-,N/A,,Clear,180,2012-10-14 16:15:00
10:35 AM,57.2,41.0,55,30.28,10.0,South,11.5,-,N/A,,Clear,180,2012-10-14 16:35:00
10:55 AM,59.0,42.8,55,30.27,10.0,South,9.2,-,N/A,,Clear,170,2012-10-14 16:55:00
11:15 AM,60.8,42.8,52,30.26,10.0,South,10.4,-,N/A,,Clear,170,2012-10-14 17:15:00
11:35 AM,60.8,42.8,52,30.25,10.0,South,10.4,-,N/A,,Clear,180,2012-10-14 17:35:00
11:55 AM,62.6,39.2,42,30.25,10.0,South,10.4,-,N/A,,Clear,180,2012-10-14 17:55:00
12:15 PM,62.6,39.2,42,30.25,10.0,South,9.2,-,N/A,,Clear,190,2012-10-14 18:15:00
12:35 PM,64.4,37.4,37,30.25,10.0,SSE,10.4,-,N/A,,Clear,160,2012-10-14 18:35:00
12:55 PM,64.4,39.2,40,30.24,10.0,SSE,6.9,-,N/A,,Clear,150,2012-10-14 18:55:00
1:15 PM,64.4,39.2,40,30.23,10.0,SSE,5.8,-,N/A,,Clear,160,2012-10-14 19:15:00
1:35 PM,66.2,39.2,37,30.21,10.0,SSE,6.9,-,N/A,,Clear,160,2012-10-14 19:35:00
1:55 PM,66.2,35.6,32,30.21,10.0,NW,3.5,-,N/A,,Clear,310,2012-10-14 19:55:00
2:15 PM,66.2,35.6,32,30.21,10.0,Calm,Calm,-,N/A,,Clear,0,2012-10-14 20:15:00
2:35 PM,68.0,37.4,33,30.20,10.0,East,4.6,-,N/A,,Clear,100,2012-10-14 20:35:00
2:55 PM,68.0,35.6,30,30.19,10.0,SSE,4.6,-,N/A,,Clear,160,2012-10-14 20:55:00
3:15 PM,66.2,37.4,35,30.19,10.0,SSW,5.8,-,N/A,,Clear,200,2012-10-14 21:15:00
3:35 PM,68.0,35.6,30,30.19,10.0,SE,3.5,-,N/A,,Clear,140,2012-10-14 21:35:00
3:55 PM,68.0,37.4,33,30.18,10.0,South,8.1,-,N/A,,Clear,170,2012-10-14 21:55:00
4:15 PM,66.2,35.6,32,30.18,10.0,South,6.9,-,N/A,,Clear,180,2012-10-14 22:15:00
4:35 PM,68.0,35.6,30,30.18,10.0,SSE,5.8,-,N/A,,Clear,150,2012-10-14 22:35:00
4:55 PM,66.2,35.6,32,30.18,10.0,South,8.1,-,N/A,,Clear,180,2012-10-14 22:55:00
5:15 PM,66.2,35.6,32,30.18,10.0,South,6.9,-,N/A,,Clear,180,2012-10-14 23:15:00
5:35 PM,66.2,35.6,32,30.18,10.0,South,6.9,-,N/A,,Clear,170,2012-10-14 23:35:00
5:55 PM,64.4,37.4,37,30.19,10.0,SSE,5.8,-,N/A,,Clear,160,2012-10-14 23:55:00
6:15 PM,62.6,39.2,42,30.19,10.0,SSE,6.9,-,N/A,,Clear,150,2012-10-15 00:15:00
6:35 PM,60.8,37.4,42,30.19,10.0,SE,6.9,-,N/A,,Clear,140,2012-10-15 00:35:00
6:55 PM,57.2,37.4,48,30.19,10.0,SSE,6.9,-,N/A,,Clear,150,2012-10-15 00:55:00
7:15 PM,57.2,35.6,44,30.19,10.0,South,6.9,-,N/A,,Clear,170,2012-10-15 01:15:00
7:35 PM,55.4,37.4,51,30.20,10.0,SSW,6.9,-,N/A,,Clear,200,2012-10-15 01:35:00
7:55 PM,53.6,37.4,54,30.20,10.0,SSW,8.1,-,N/A,,Clear,200,2012-10-15 01:55:00
8:15 PM,53.6,35.6,51,30.20,10.0,South,9.2,-,N/A,,Clear,180,2012-10-15 02:15:00
8:35 PM,53.6,35.6,51,30.20,10.0,South,8.1,-,N/A,,Clear,170,2012-10-15 02:35:00
8:55 PM,53.6,35.6,51,30.20,10.0,South,6.9,-,N/A,,Clear,180,2012-10-15 02:55:00
9:15 PM,51.8,35.6,54,30.20,10.0,South,4.6,-,N/A,,Clear,190,2012-10-15 03:15:00
9:35 PM,55.4,37.4,51,30.20,10.0,WSW,4.6,-,N/A,,Clear,240,2012-10-15 03:35:00
9:55 PM,51.8,35.6,54,30.20,10.0,WSW,5.8,-,N/A,,Clear,250,2012-10-15 03:55:00
10:15 PM,51.8,35.6,54,30.20,10.0,North,3.5,-,N/A,,Clear,360,2012-10-15 04:15:00
10:35 PM,51.8,33.8,50,30.20,10.0,Calm,Calm,-,N/A,,Clear,0,2012-10-15 04:35:00
10:55 PM,48.2,33.8,58,30.19,10.0,West,4.6,-,N/A,,Clear,280,2012-10-15 04:55:00
11:15 PM,48.2,37.4,66,30.19,10.0,Calm,Calm,-,N/A,,Clear,0,2012-10-15 05:15:00
11:35 PM,46.4,39.2,76,30.19,10.0,Calm,Calm,-,N/A,,Clear,0,2012-10-15 05:35:00
11:55 PM,46.4,37.4,71,30.18,10.0,SSW,3.5,-,N/A,,Clear,200,2012-10-15 05:55:00